Location: Cella
(44.7333°N, 10.5667°E)
Time: 16:45:24
(UTC+00:00)

COSMOS 2251 DEB - Visible Passes

Search period start: 25 September 2021 00:00
Search period end: 05 October 2021 00:00
Orbit: 708 x 786 km, 74.1° (Epoch: 24 September)

Date Brightness Start Highest point End Pass type
(mag) Time Alt. Az. Time Alt. Az. Time Alt. Az.
27 Sep ? 21:37:14 10° N 21:37:15 10° N 21:37:15 10° N visible
30 Sep ? 21:08:49 10° N 21:09:01 11° N 21:09:01 11° N visible
01 Oct ? 20:26:07 10° N 20:26:22 11° N 20:26:22 11° N visible
02 Oct ? 21:23:29 10° NNW 21:23:32 10° NNW 21:23:32 10° NNW visible
03 Oct ? 20:40:24 10° N 20:40:55 13° N 20:40:55 13° N visible
04 Oct ? 19:57:37 10° N 19:58:18 13° N 19:58:18 13° N visible
